Location: Alulod
(14.2076°N, 120.8898°E)
Time: 03:39:46
(UTC+00:00)

Cosmos 1743 - Pass Details

Date: 13 December 2025
Orbit: 399 x 406 km, 82.5° (Epoch: 21 January)

Event Time Altitude Azimuth Distance (km) Brightness Sun altitude
Rises 21:04:58 0° 172° (S) 2,340 6.4 -15.9°
Reaches altitude 10° 21:07:02 10° 165° (SSE) 1,483 5.5 -15.4°
Maximum altitude 21:10:06 41° 93° (E) 617 3.6 -14.7°
Drops below altitude 10° 21:13:11 10° 21° (NNE) 1,495 5.1 -14.1°
Sets 21:15:17 0° 14° (NNE) 2,362 6.0 -13.6°
